| time (UTC) | temp F | wind direction | speed knots | gust knots | rain 1hr in | rain 24hr in | rain mn in | humidity % | barometer mb |
| 20260507023033 | 42 | 213 | 0.0 | 0.0 | 0.00 | 0.00 | 0.00 | 77 | 1011.5 |
| 20260507021532 | 42 | 213 | 0.0 | 0.0 | 0.00 | 0.00 | 0.00 | 77 | 1011.5 |
| 20260507020042 | 41 | 213 | 0.0 | 0.0 | 0.00 | 0.00 | 0.00 | 77 | 1011.6 |
| 20260507014534 | 41 | 213 | 0.0 | 0.0 | 0.00 | 0.00 | 0.00 | 76 | 1011.7 |
| 20260507013026 | 42 | 213 | 0.0 | 0.0 | 0.00 | 0.00 | 0.00 | 76 | 1011.8 |
| 20260507011522 | 42 | 213 | 0.0 | 0.0 | 0.00 | 0.00 | 0.00 | 76 | 1011.9 |
| 20260507010026 | 43 | 213 | 0.0 | 0.0 | 0.00 | 0.00 | 0.00 | 76 | 1011.9 |
| 20260507004518 | 43 | 213 | 0.0 | 0.0 | 0.00 | 0.00 | 0.00 | 76 | 1012.0 |
| 20260507003020 | 43 | 213 | 0.0 | 0.0 | 0.00 | 0.00 | 0.00 | 76 | 1012.1 |
| 20260507001522 | 44 | 213 | 0.0 | 0.0 | 0.00 | 0.00 | 0.00 | 75 | 1012.1 |
| 20260507000013 | 45 | 213 | 0.0 | 0.9 | 0.00 | 0.00 | 0.00 | 76 | 1012.2 |
| 20260506234509 | 45 | 213 | 0.0 | 0.0 | 0.00 | 0.00 | 0.00 | 75 | 1012.2 |
| 20260506233007 | 46 | 213 | 0.0 | 0.9 | 0.00 | 0.00 | 0.00 | 75 | 1012.3 |
| 20260506231512 | 47 | 213 | 0.0 | 0.0 | 0.00 | 0.00 | 0.00 | 75 | 1012.3 |
| 20260506230006 | 48 | 213 | 0.0 | 0.0 | 0.00 | 0.00 | 0.00 | 75 | 1012.3 |
| 20260506224506 | 49 | 213 | 0.0 | 0.0 | 0.00 | 0.00 | 0.00 | 76 | 1012.4 |
| 20260506223004 | 51 | 213 | 0.0 | 0.0 | 0.00 | 0.00 | 0.00 | 76 | 1012.5 |
| 20260506221504 | 52 | 213 | 0.0 | 2.6 | 0.00 | 0.00 | 0.00 | 76 | 1012.6 |
| 20260506220004 | 53 | 213 | 3.5 | 5.2 | 0.00 | 0.00 | 0.00 | 76 | 1012.7 |
| 20260506214505 | 53 | 213 | 3.5 | 6.1 | 0.00 | 0.00 | 0.00 | 76 | 1012.7 |
| 20260506213004 | 53 | 213 | 1.7 | 4.3 | 0.00 | 0.00 | 0.00 | 76 | 1012.7 |
| 20260506211600 | 54 | 213 | 3.5 | 5.2 | 0.00 | 0.00 | 0.00 | 76 | 1012.7 |
| 20260506210058 | 54 | 213 | 2.6 | 6.1 | 0.00 | 0.00 | 0.00 | 76 | 1012.5 |
| 20260506204621 | 54 | 213 | 1.7 | 3.5 | 0.00 | 0.00 | 0.00 | 76 | 1012.4 |
| 20260506203056 | 54 | 213 | 2.6 | 5.2 | 0.00 | 0.00 | 0.00 | 76 | 1012.4 |
| 20260506201555 | 55 | 213 | 1.7 | 3.5 | 0.00 | 0.00 | 0.00 | 76 | 1012.2 |
| 20260506200055 | 56 | 213 | 2.6 | 4.3 | 0.00 | 0.00 | 0.00 | 75 | 1012.1 |
| 20260506194604 | 57 | 213 | 2.6 | 4.3 | 0.00 | 0.00 | 0.00 | 75 | 1011.9 |
| 20260506193058 | 56 | 213 | 1.7 | 3.5 | 0.00 | 0.00 | 0.00 | 76 | 1011.8 |
| 20260506191553 | 57 | 213 | 1.7 | 3.5 | 0.00 | 0.00 | 0.00 | 75 | 1011.5 |
| 20260506190053 | 57 | 213 | 1.7 | 4.3 | 0.00 | 0.00 | 0.00 | 73 | 1011.4 |
| 20260506184553 | 58 | 213 | 3.5 | 5.2 | 0.00 | 0.00 | 0.00 | 73 | 1011.3 |
| 20260506183056 | 59 | 213 | 3.5 | 6.1 | 0.00 | 0.00 | 0.00 | 73 | 1011.1 |
| 20260506181550 | 61 | 213 | 3.5 | 9.6 | 0.00 | 0.00 | 0.00 | 66 | 1011.1 |
| 20260506180051 | 62 | 244 | 5.2 | 7.0 | 0.00 | 0.00 | 0.00 | 61 | 1011.1 |
| 20260506174548 | 63 | 259 | 3.5 | 6.1 | 0.00 | 0.00 | 0.00 | 56 | 1011.2 |
| 20260506173049 | 63 | 259 | 1.7 | 7.0 | 0.00 | 0.00 | 0.00 | 53 | 1011.3 |
| 20260506171554 | 63 | 259 | 3.5 | 6.1 | 0.00 | 0.00 | 0.00 | 54 | 1011.4 |
| 20260506170047 | 64 | 259 | 3.5 | 9.6 | 0.00 | 0.00 | 0.00 | 50 | 1011.4 |
| 20260506164544 | 66 | 257 | 2.6 | 6.1 | 0.00 | 0.00 | 0.00 | 49 | 1011.4 |
| 20260506163044 | 65 | 257 | 2.6 | 6.1 | 0.00 | 0.00 | 0.00 | 49 | 1011.5 |
| 20260506161540 | 64 | 257 | 1.7 | 5.2 | 0.00 | 0.00 | 0.00 | 51 | 1011.5 |
| 20260506160038 | 65 | 257 | 2.6 | 5.2 | 0.00 | 0.00 | 0.00 | 50 | 1011.7 |
| 20260506154536 | 63 | 257 | 0.0 | 2.6 | 0.00 | 0.00 | 0.00 | 47 | 1011.8 |
| 20260506153034 | 63 | 270 | 0.0 | 1.7 | 0.00 | 0.00 | 0.00 | 49 | 1012.0 |
| 20260506151536 | 63 | 270 | 0.9 | 4.3 | 0.00 | 0.00 | 0.00 | 47 | 1012.2 |
| 20260506150031 | 64 | 270 | 2.6 | 6.1 | 0.00 | 0.00 | 0.00 | 48 | 1012.3 |
| 20260506144529 | 63 | 270 | 3.5 | 6.1 | 0.00 | 0.00 | 0.00 | 51 | 1012.6 |
| 20260506143026 | 63 | 270 | 1.7 | 3.5 | 0.00 | 0.00 | 0.00 | 48 | 1012.7 |
| 20260506141525 | 62 | 270 | 0.0 | 2.6 | 0.00 | 0.00 | 0.00 | 52 | 1013.0 |
| 20260506140028 | 63 | 270 | 1.7 | 4.3 | 0.00 | 0.00 | 0.00 | 53 | 1013.1 |
| 20260506134522 | 63 | 270 | 3.5 | 7.0 | 0.00 | 0.00 | 0.00 | 49 | 1013.3 |
| 20260506133038 | 65 | 270 | 1.7 | 7.0 | 0.00 | 0.00 | 0.00 | 48 | 1013.4 |
| 20260506131523 | 63 | 270 | 0.9 | 6.1 | 0.00 | 0.00 | 0.00 | 50 | 1013.7 |
| 20260506130016 | 63 | 270 | 3.5 | 7.8 | 0.00 | 0.00 | 0.00 | 49 | 1013.8 |
| 20260506124515 | 62 | 270 | 1.7 | 6.1 | 0.00 | 0.00 | 0.00 | 51 | 1013.9 |
| 20260506123014 | 62 | 270 | 2.6 | 6.1 | 0.00 | 0.00 | 0.00 | 50 | 1014.1 |
| 20260506121512 | 63 | 270 | 0.0 | 2.6 | 0.00 | 0.00 | 0.00 | 51 | 1014.2 |
| 20260506120010 | 61 | 270 | 1.7 | 5.2 | 0.00 | 0.00 | 0.00 | 51 | 1014.4 |
| 20260506114506 | 60 | 270 | 2.6 | 6.1 | 0.00 | 0.00 | 0.00 | 56 | 1014.5 |
| 20260506113009 | 60 | 270 | 1.7 | 7.0 | 0.00 | 0.00 | 0.00 | 55 | 1014.7 |
| 20260506111504 | 62 | 269 | 5.2 | 7.8 | 0.00 | 0.00 | 0.00 | 52 | 1014.6 |
| 20260506110103 | 61 | 241 | 2.6 | 7.0 | 0.00 | 0.00 | 0.00 | 52 | 1014.8 |
| 20260506104600 | 60 | 234 | 2.6 | 6.1 | 0.00 | 0.00 | 0.00 | 59 | 1014.8 |
| 20260506103059 | 59 | 236 | 1.7 | 3.5 | 0.00 | 0.00 | 0.00 | 58 | 1015.0 |
| 20260506101552 | 59 | 236 | 2.6 | 6.1 | 0.00 | 0.00 | 0.00 | 62 | 1015.1 |
| 20260506100051 | 59 | 236 | 2.6 | 6.1 | 0.00 | 0.00 | 0.00 | 64 | 1015.2 |
| 20260506094544 | 58 | 236 | 2.6 | 7.0 | 0.00 | 0.00 | 0.00 | 65 | 1015.2 |
| 20260506093040 | 57 | 236 | 0.9 | 3.5 | 0.00 | 0.00 | 0.00 | 67 | 1015.3 |
| 20260506091537 | 57 | 236 | 1.7 | 5.2 | 0.00 | 0.00 | 0.00 | 70 | 1015.3 |
| 20260506090033 | 55 | 236 | 0.9 | 3.5 | 0.00 | 0.00 | 0.00 | 74 | 1015.4 |
| 20260506084538 | 55 | 236 | 1.7 | 4.3 | 0.00 | 0.00 | 0.00 | 77 | 1015.5 |
| 20260506083029 | 54 | 236 | 0.0 | 2.6 | 0.00 | 0.00 | 0.00 | 77 | 1015.5 |
| 20260506081527 | 53 | 236 | 0.9 | 3.5 | 0.00 | 0.00 | 0.00 | 77 | 1015.5 |
| 20260506073009 | 49 | 236 | 0.0 | 1.7 | 0.00 | 0.00 | 0.00 | 77 | 1015.6 |
| 20260506071507 | 46 | 236 | 0.0 | 1.7 | 0.00 | 0.00 | 0.00 | 78 | 1015.7 |
| 20260506061554 | 39 | 236 | 0.0 | 0.0 | 0.00 | 0.00 | 0.00 | 78 | 1015.5 |
| 20260506044533 | 37 | 236 | 0.0 | 0.0 | 0.00 | 0.00 | 0.00 | 77 | 1015.3 |
| 20260506043036 | 37 | 236 | 0.0 | 0.0 | 0.00 | 0.00 | 0.00 | 77 | 1015.4 |
| 20260506041529 | 38 | 236 | 0.0 | 0.0 | 0.00 | 0.00 | 0.00 | 77 | 1015.4 |
| 20260506040036 | 38 | 236 | 0.0 | 1.7 | 0.00 | 0.00 | 0.00 | 77 | 1015.4 |
| 20260506034528 | 38 | 236 | 0.0 | 0.9 | 0.00 | 0.00 | 0.00 | 77 | 1015.4 |
| 20260506033024 | 39 | 236 | 0.0 | 0.0 | 0.00 | 0.00 | 0.00 | 77 | 1015.5 |
| 20260506031521 | 39 | 236 | 0.0 | 1.7 | 0.00 | 0.00 | 0.00 | 77 | 1015.7 |
| 20260506030018 | 40 | 236 | 0.0 | 0.0 | 0.00 | 0.00 | 0.00 | 77 | 1015.7 |
| 20260506024518 | 41 | 236 | 0.0 | 0.0 | 0.00 | 0.00 | 0.00 | 77 | 1015.7 |